period_start,C,m1,H,J0,J1,J2,J3,J4,J5,JA,JB,JC,JD,JJ,JK,JN,#
2018-10-12 00:00:13,0.00,0.00,0.00,24.60,29.09,30.96,-0.15,-3.94,1019.38,2018.03,3593.99,3067.05,3529.88,0.00,0.00,0.00,0000 0000 0000 A000 020008
2018-10-12 00:05:15,0.00,0.00,0.00,24.60,29.08,30.94,-0.15,-3.98,1019.47,2018.01,3593.99,3067.03,3529.88,0.00,0.00,0.00,0000 0000 0000 A000 020008
2018-10-12 00:10:16,0.00,0.00,0.00,24.60,29.08,30.99,-0.15,-3.92,1019.49,2018.02,3593.99,3067.01,3529.65,0.00,0.00,0.00,0000 0000 0000 A000 020008
2018-10-12 00:15:17,0.00,0.00,0.00,24.60,29.08,30.99,-0.15,-3.90,1019.50,2018.01,3593.99,3067.01,3529.69,0.00,0.00,0.00,0000 0000 0000 A000 020008
2018-10-12 00:20:18,0.00,0.00,0.00,24.60,29.07,30.99,-0.14,-3.98,1019.52,2018.01,3593.99,3067.02,3529.83,0.00,0.00,0.00,0000 0000 0000 A000 020008
2018-10-12 00:25:20,0.00,0.00,0.00,24.62,29.07,30.97,-0.15,-3.98,1019.54,2018.01,3593.99,3067.02,3529.77,0.00,0.00,0.00,0000 0000 0000 A000 020008
2018-10-12 00:30:21,0.00,0.00,0.00,24.62,29.07,30.96,-0.15,-3.93,1019.55,2018.00,3593.99,3067.04,3529.73,0.00,0.00,0.00,0000 0000 0000 A000 020008
2018-10-12 00:35:22,0.00,0.00,0.00,24.62,29.07,31.02,-0.15,-3.96,1019.55,2018.01,3593.99,3067.01,3529.71,0.00,0.00,0.00,0000 0000 0000 A000 020008
2018-10-12 00:40:23,0.00,0.00,0.00,24.62,29.07,31.03,-0.15,-3.97,1019.55,2018.01,3593.99,3067.01,3529.68,0.00,0.00,0.00,0000 0000 0000 A000 020008
2018-10-12 00:45:24,0.00,0.00,0.00,24.63,29.08,31.02,-0.15,-3.94,1019.56,2018.01,3593.99,3067.02,3529.79,0.00,0.00,0.00,0000 0000 0000 A000 020008
2018-10-12 00:50:25,0.00,0.00,0.00,24.65,29.07,31.02,-0.15,-3.96,1019.57,2018.00,3593.98,3067.02,3529.59,0.00,0.00,0.00,0000 0000 0000 A000 020008
2018-10-12 00:55:26,0.00,0.00,0.00,24.65,29.08,31.06,-0.15,-3.96,1019.59,2018.02,3593.99,3067.04,3529.72,0.00,0.00,0.00,0000 0000 0000 A000 020008
2018-10-12 01:00:27,0.00,0.00,0.00,24.65,29.08,31.05,-0.14,-3.98,1019.60,2018.02,3593.99,3067.02,3529.83,0.00,0.00,0.00,0000 0000 0000 A000 020008
2018-10-12 01:05:28,0.00,0.00,0.00,24.66,29.09,31.05,-0.15,-3.97,1019.62,2018.03,3593.99,3067.03,3529.92,0.00,0.00,0.00,0000 0000 0000 A000 020008
2018-10-12 01:10:29,0.00,0.00,0.00,24.67,29.09,31.05,-0.15,-3.95,1019.61,2018.01,3593.99,3067.01,3529.55,0.00,0.00,0.00,0000 0000 0000 A000 020008
2018-10-12 01:15:30,0.00,0.00,0.00,24.67,29.10,30.98,-0.15,-3.93,1019.58,2018.00,3593.96,3067.00,3529.23,0.00,0.00,0.00,0000 0000 0000 A000 020008
2018-10-12 01:20:31,0.00,0.00,0.00,24.67,29.10,31.04,-0.15,-3.96,1019.59,2018.01,3593.98,3067.01,3529.37,0.00,0.00,0.00,0000 0000 0000 A000 020008
2018-10-12 01:25:32,0.00,0.00,0.00,24.68,29.10,31.04,-0.15,-3.99,1019.71,2018.01,3593.98,3067.00,3529.43,0.00,0.00,0.00,0000 0000 0000 A000 020008
2018-10-12 01:30:33,0.00,0.00,0.00,24.70,29.10,31.04,-0.15,-3.98,1019.89,2018.01,3593.98,3067.00,3529.46,0.00,0.00,0.00,0000 0000 0000 A000 020008
2018-10-12 01:35:35,0.00,0.00,0.00,24.70,29.10,31.07,-0.15,-3.98,1019.95,2018.00,3593.98,3067.01,3529.50,0.00,0.00,0.00,0000 0000 0000 A000 020008
2018-10-12 01:40:36,0.00,0.00,0.00,24.70,29.10,31.09,-0.15,-4.00,1019.94,2018.00,3593.96,3067.01,3529.22,0.00,0.00,0.00,0000 0000 0000 A000 020008
2018-10-12 01:45:37,0.00,0.00,0.00,24.72,29.10,31.11,-0.15,-3.97,1019.96,2018.00,3593.95,3067.00,3529.14,0.00,0.00,0.00,0000 0000 0000 A000 020008
2018-10-12 01:50:38,0.00,0.00,0.00,24.72,29.10,31.09,-0.14,-3.99,1020.02,2018.00,3593.93,3067.00,3529.09,0.00,0.00,0.00,0000 0000 0000 A000 020008
2018-10-12 01:55:39,0.00,0.00,0.00,24.72,29.11,31.09,-0.15,-3.98,1020.03,2018.00,3593.83,3067.00,3529.03,0.00,0.00,0.00,0000 0000 0000 A000 020008
2018-10-12 02:00:40,0.00,0.00,0.00,24.74,29.12,31.12,-0.15,-3.97,1020.03,2018.00,3593.77,3067.00,3529.01,0.00,0.00,0.00,0000 0000 0000 A000 020008
2018-10-12 02:05:42,0.00,0.00,0.00,24.75,29.12,31.18,-0.15,-3.98,1020.03,2018.00,3593.82,3067.00,3529.03,0.00,0.00,0.00,0000 0000 0000 A000 020008
2018-10-12 02:10:42,0.00,0.00,0.00,24.77,29.12,31.11,-0.14,-3.98,1020.03,2018.00,3593.77,3067.00,3529.01,0.00,0.00,0.00,0000 0000 0000 A000 020008
2018-10-12 02:15:44,0.00,0.00,0.00,24.78,29.12,31.11,-0.15,-3.95,1020.03,2018.00,3593.44,3066.99,3529.00,0.00,0.00,0.00,0000 0000 0000 A000 020008
2018-10-12 02:20:45,0.00,0.00,0.00,24.80,29.13,31.10,-0.15,-3.98,1020.03,2018.00,3593.33,3066.97,3529.00,0.00,0.00,0.00,0000 0000 0000 A000 020008
2018-10-12 02:25:46,0.00,0.00,0.00,24.82,29.14,31.12,-0.14,-3.98,1020.03,2018.00,3593.09,3066.95,3529.00,0.00,0.00,0.00,0000 0000 0000 A000 020008
2018-10-12 02:30:47,0.00,0.00,0.00,24.83,29.15,31.16,-0.15,-3.98,1020.03,2018.00,3593.14,3066.96,3529.00,0.00,0.00,0.00,0000 0000 0000 A000 020008
2018-10-12 02:35:48,0.00,0.00,0.00,24.85,29.15,31.21,-0.15,-3.97,1020.03,2018.00,3593.01,3066.91,3529.00,0.00,0.00,0.00,0000 0000 0000 A000 020008
2018-10-12 02:40:50,0.00,0.00,0.00,24.87,29.15,31.18,-0.15,-3.99,1020.03,2018.00,3593.01,3066.91,3528.99,0.00,0.00,0.00,0000 0000 0000 A000 020008
2018-10-12 02:45:51,0.00,0.00,0.00,24.87,29.17,31.21,-0.14,-3.97,1020.05,2017.99,3593.01,3066.85,3528.98,0.00,0.00,0.00,0000 0000 0000 A000 020008
2018-10-12 02:50:52,0.00,0.00,0.00,24.88,29.17,31.20,-0.15,-3.96,1020.05,2017.99,3593.01,3066.73,3528.98,0.00,0.00,0.00,0000 0000 0000 A000 020008
2018-10-12 02:55:53,0.00,0.00,0.00,24.90,29.18,31.21,-0.15,-3.94,1020.05,2017.98,3593.00,3066.42,3528.96,0.00,0.00,0.00,0000 0000 0000 A000 020008
2018-10-12 03:00:54,0.00,0.00,0.00,24.90,29.20,31.24,-0.15,-3.98,1020.07,2017.97,3593.00,3066.24,3528.92,0.00,0.00,0.00,0000 0000 0000 A000 020008
2018-10-12 03:05:56,0.00,0.00,0.00,24.91,29.20,31.31,-0.15,-3.98,1020.08,2017.96,3593.00,3066.05,3528.72,0.00,0.00,0.00,0000 0000 0000 A000 020008
2018-10-12 03:10:57,0.00,0.00,0.00,24.92,29.21,31.29,-0.15,-3.98,1020.11,2017.94,3592.98,3066.03,3528.42,0.00,0.00,0.00,0000 0000 0000 A000 020008
2018-10-12 03:15:58,0.00,0.00,0.00,24.93,29.22,31.31,-0.15,-3.99,1020.21,2017.87,3592.98,3066.01,3528.22,0.00,0.00,0.00,0000 0000 0000 A000 020008
2018-10-12 03:20:59,0.00,0.00,0.00,24.95,29.22,31.32,-0.15,-3.98,1020.26,2017.89,3592.98,3066.02,3528.16,0.00,0.00,0.00,0000 0000 0000 A000 020008
2018-10-12 03:26:01,0.00,0.00,0.00,24.95,29.24,31.32,-0.15,-3.98,1020.30,2017.83,3592.98,3066.02,3528.09,0.00,0.00,0.00,0000 0000 0000 A000 020008
2018-10-12 03:31:02,0.00,0.00,0.00,24.95,29.25,31.31,-0.15,-3.98,1020.39,2017.71,3592.94,3066.00,3528.02,0.00,0.00,0.00,0000 0000 0000 A000 020008
2018-10-12 03:36:03,0.00,0.00,0.00,24.95,29.25,31.31,-0.15,-3.95,1020.46,2017.57,3592.93,3066.00,3528.02,0.00,0.00,0.00,0000 0000 0000 A000 020008
2018-10-12 03:41:04,0.00,0.00,0.00,24.97,29.27,31.36,-0.15,-3.94,1020.50,2017.43,3592.88,3066.00,3528.01,0.00,0.00,0.00,0000 0000 0000 A000 020008
2018-10-12 03:46:05,0.00,0.00,0.00,24.97,29.27,31.36,-0.14,-3.98,1020.52,2017.30,3592.79,3066.00,3528.00,0.00,0.00,0.00,0000 0000 0000 A000 020008
2018-10-12 03:51:06,0.00,0.00,0.00,24.97,29.28,31.38,-0.15,-3.99,1020.52,2017.19,3592.62,3066.00,3528.00,0.00,0.00,0.00,0000 0000 0000 A000 020008
2018-10-12 03:56:08,0.00,0.00,0.00,24.97,29.30,31.37,-0.15,-3.94,1020.52,2017.08,3592.16,3065.97,3528.00,0.00,0.00,0.00,0000 0000 0000 A000 020008
2018-10-12 04:01:09,0.00,0.00,0.00,24.97,29.30,31.39,-0.15,-3.97,1020.52,2017.04,3592.13,3065.98,3528.00,0.00,0.00,0.00,0000 0000 0000 A000 020008
2018-10-12 04:06:10,0.00,0.00,0.00,24.99,29.30,31.36,-0.15,-3.98,1020.52,2017.03,3592.07,3065.98,3527.99,0.00,0.00,0.00,0000 0000 0000 A000 020008
2018-10-12 04:11:11,0.00,0.00,0.00,24.99,29.32,31.38,-0.15,-3.99,1020.52,2017.02,3592.05,3065.96,3527.98,0.00,0.00,0.00,0000 0000 0000 A000 020008
2018-10-12 04:16:12,0.00,0.00,0.00,25.00,29.32,31.39,-0.15,-3.98,1020.54,2017.02,3592.03,3065.79,3527.98,0.00,0.00,0.00,0000 0000 0000 A000 020008
2018-10-12 04:21:13,0.00,0.00,0.00,24.99,29.32,31.37,-0.15,-4.00,1020.54,2017.02,3592.00,3065.81,3527.98,0.00,0.00,0.00,0000 0000 0000 A000 020008
2018-10-12 04:26:14,0.00,0.00,0.00,25.00,29.34,31.38,-0.15,-3.98,1020.62,2017.00,3592.00,3065.59,3527.89,0.00,0.00,0.00,0000 0000 0000 A000 020008
2018-10-12 04:31:15,0.00,0.00,0.00,25.00,29.35,31.38,-0.15,-3.98,1020.67,2017.00,3592.00,3065.19,3527.50,0.00,0.00,0.00,0000 0000 0000 A000 020008
2018-10-12 04:36:17,0.00,0.00,0.00,25.00,29.35,31.36,-0.15,-3.98,1020.69,2017.00,3592.00,3065.16,3527.42,0.00,0.00,0.00,0000 0000 0000 A000 020008
2018-10-12 04:41:18,0.00,0.00,0.00,25.00,29.35,31.38,-0.15,-3.99,1020.78,2017.00,3592.00,3065.05,3527.15,0.00,0.00,0.00,0000 0000 0000 A000 020008
2018-10-12 04:46:19,0.00,0.00,0.00,25.00,29.37,31.43,-0.15,-4.00,1020.98,2017.00,3591.99,3065.02,3527.07,0.00,0.00,0.00,0000 0000 0000 A000 020008
2018-10-12 04:51:20,0.00,0.00,0.00,25.00,29.37,31.38,-0.15,-3.99,1021.01,2017.00,3591.99,3065.03,3527.08,0.00,0.00,0.00,0000 0000 0000 A000 020008
2018-10-12 04:56:22,0.00,0.00,0.00,25.00,29.37,31.37,-0.15,-3.95,1021.01,2017.00,3591.99,3065.03,3527.05,0.00,0.00,0.00,0000 0000 0000 A000 020008
2018-10-12 05:01:23,0.00,0.00,0.00,25.00,29.38,31.40,-0.15,-3.98,1021.00,2017.00,3591.98,3065.01,3527.02,0.00,0.00,0.00,0000 0000 0000 A000 020008
2018-10-12 05:06:24,0.00,0.00,0.00,25.00,29.39,31.41,-0.15,-3.98,1021.00,2017.00,3591.98,3065.00,3527.01,0.00,0.00,0.00,0000 0000 0000 A000 020008
2018-10-12 05:11:25,0.00,0.00,0.00,25.00,29.40,31.40,-0.15,-3.96,1021.00,2016.99,3591.95,3065.00,3527.01,0.00,0.00,0.00,0000 0000 0000 A000 020008
2018-10-12 05:16:26,0.00,0.00,0.00,24.98,29.40,31.36,-0.15,-3.98,1021.00,2016.99,3591.91,3065.00,3527.00,0.00,0.00,0.00,0000 0000 0000 A000 020008
2018-10-12 05:21:27,0.00,0.00,0.00,24.97,29.40,31.33,-0.15,-3.99,1021.01,2016.99,3591.81,3065.00,3527.00,0.00,0.00,0.00,0000 0000 0000 A000 020008
2018-10-12 05:26:29,0.00,0.00,0.00,24.97,29.40,31.38,-0.15,-3.96,1021.01,2016.99,3591.60,3064.99,3527.00,0.00,0.00,0.00,0000 0000 0000 A000 020008
2018-10-12 05:31:30,0.00,0.00,0.00,24.97,29.40,31.41,-0.15,-3.96,1021.01,2016.98,3591.51,3064.99,3527.00,0.00,0.00,0.00,0000 0000 0000 A000 020008
2018-10-12 05:36:31,0.00,0.00,0.00,24.97,29.40,31.38,-0.15,-3.91,1021.02,2016.99,3591.53,3064.99,3526.99,0.00,0.00,0.00,0000 0000 0000 A000 020008
2018-10-12 05:41:32,0.00,0.00,0.00,24.97,29.42,31.40,-0.15,-3.98,1021.01,2016.98,3591.28,3064.99,3526.99,0.00,0.00,0.00,0000 0000 0000 A000 020008
2018-10-12 05:46:33,0.00,0.00,0.00,24.96,29.42,31.38,-0.15,-3.99,1021.02,2016.99,3591.33,3064.99,3526.99,0.00,0.00,0.00,0000 0000 0000 A000 020008
2018-10-12 05:51:34,0.00,0.00,0.00,24.96,29.42,31.40,-0.15,-3.99,1021.03,2016.99,3591.58,3064.99,3526.99,0.00,0.00,0.00,0000 0000 0000 A000 020008
2018-10-12 05:56:36,0.00,0.00,0.00,24.96,29.42,31.39,-0.15,-3.99,1021.04,2016.97,3591.22,3064.99,3526.98,0.00,0.00,0.00,0000 0000 0000 A000 020008
2018-10-12 06:01:37,0.00,0.00,0.00,24.95,29.42,31.35,-0.15,-3.99,1021.15,2016.96,3591.10,3064.98,3526.98,0.00,0.00,0.00,0000 0000 0000 A000 020008
2018-10-12 06:06:38,0.00,0.00,0.00,24.95,29.42,31.37,-0.15,-3.96,1021.35,2016.97,3591.16,3064.98,3526.98,0.00,0.00,0.00,0000 0000 0000 A000 020008
2018-10-12 06:11:40,0.00,0.00,0.00,24.95,29.42,31.35,-0.15,-4.00,1021.49,2016.98,3591.33,3064.99,3526.99,0.00,0.00,0.00,0000 0000 0000 A000 020008
2018-10-12 06:16:41,0.00,0.00,0.00,24.95,29.42,31.36,-0.15,-3.98,1021.50,2016.95,3591.17,3064.98,3526.97,0.00,0.00,0.00,0000 0000 0000 A000 020008
2018-10-12 06:21:42,0.00,0.00,0.00,24.95,29.42,31.39,-0.15,-4.00,1021.50,2016.93,3591.03,3064.95,3526.96,0.00,0.00,0.00,0000 0000 0000 A000 020008
2018-10-12 06:26:43,0.00,0.00,0.00,24.95,29.42,31.34,-0.15,-4.00,1021.50,2016.94,3591.03,3064.97,3526.95,0.00,0.00,0.00,0000 0000 0000 A000 020008
2018-10-12 06:31:44,0.00,0.00,0.00,24.95,29.42,31.33,-0.15,-3.99,1021.50,2016.94,3591.06,3064.97,3526.96,0.00,0.00,0.00,0000 0000 0000 A000 020008
2018-10-12 06:36:46,0.00,0.00,0.00,24.94,29.42,31.34,-0.15,-4.00,1021.51,2016.97,3591.12,3064.99,3526.98,0.00,0.00,0.00,0000 0000 0000 A000 020008
2018-10-12 06:41:47,0.00,0.00,0.00,24.94,29.42,31.35,-0.15,-3.99,1021.51,2016.96,3591.06,3064.98,3526.96,0.00,0.00,0.00,0000 0000 0000 A000 020008
2018-10-12 06:46:48,0.00,0.00,0.00,24.94,29.42,31.36,-0.15,-3.99,1021.52,2016.96,3591.07,3064.97,3526.96,0.00,0.00,0.00,0000 0000 0000 A000 020008
2018-10-12 06:51:49,0.00,0.00,0.00,24.92,29.42,31.32,-0.15,-3.98,1021.54,2016.93,3591.08,3064.98,3526.96,0.00,0.00,0.00,0000 0000 0000 A000 020008
2018-10-12 06:56:50,0.00,0.00,0.00,24.92,29.42,31.34,-0.15,-3.98,1021.60,2016.96,3591.10,3064.98,3526.96,0.00,0.00,0.00,0000 0000 0000 A000 020008
2018-10-12 07:01:51,0.00,0.00,0.00,24.92,29.42,31.34,-0.15,-3.99,1021.86,2016.97,3591.15,3064.98,3526.98,0.00,0.00,0.00,0000 0000 0000 A000 020008
2018-10-12 07:06:53,0.00,0.00,0.00,24.92,29.42,31.33,-0.15,-3.99,1021.98,2016.98,3591.18,3064.99,3526.98,0.00,0.00,0.00,0000 0000 0000 A000 020008
2018-10-12 07:11:54,0.00,0.00,0.00,24.92,29.42,31.32,-0.15,-4.00,1021.99,2016.97,3591.17,3064.98,3526.98,0.00,0.00,0.00,0000 0000 0000 A000 020008
2018-10-12 07:16:55,0.00,0.00,0.00,24.92,29.42,31.35,-0.15,-3.98,1021.99,2016.97,3591.09,3064.97,3526.97,0.00,0.00,0.00,0000 0000 0000 A000 020008
2018-10-12 07:21:56,0.00,0.00,0.00,24.90,29.42,31.36,-0.15,-3.99,1021.99,2016.92,3591.03,3064.97,3526.93,0.00,0.00,0.00,0000 0000 0000 A000 020008
2018-10-12 07:26:57,0.00,0.00,0.00,24.90,29.42,31.35,-0.14,-3.97,1021.99,2016.94,3591.05,3064.98,3526.95,0.00,0.00,0.00,0000 0000 0000 A000 020008
2018-10-12 07:31:58,0.00,0.00,0.00,24.90,29.42,31.29,-0.15,-3.99,1022.00,2016.94,3591.04,3064.98,3526.97,0.00,0.00,0.00,0000 0000 0000 A000 020008
2018-10-12 07:37:00,0.00,0.00,0.00,24.90,29.42,31.30,-0.15,-3.98,1022.01,2016.89,3591.02,3064.95,3526.88,0.00,0.00,0.00,0000 0000 0000 A000 020008
2018-10-12 07:42:01,0.00,0.00,0.00,24.90,29.42,31.32,-0.15,-4.01,1022.06,2016.87,3591.01,3064.93,3526.83,0.00,0.00,0.00,0000 0000 0000 A000 020008
2018-10-12 07:47:02,0.00,0.00,0.00,24.90,29.42,31.31,-0.15,-4.00,1022.37,2016.79,3591.00,3064.83,3526.65,0.00,0.00,0.00,0000 0000 0000 A000 020008
2018-10-12 07:52:04,0.00,0.00,0.00,24.90,29.42,31.32,-0.15,-4.00,1022.45,2016.82,3591.01,3064.89,3526.73,0.00,0.00,0.00,0000 0000 0000 A000 020008
2018-10-12 07:57:05,0.00,0.00,0.00,24.90,29.42,31.31,-0.15,-4.00,1022.46,2016.81,3591.01,3064.89,3526.73,0.00,0.00,0.00,0000 0000 0000 A000 020008
2018-10-12 08:02:06,0.00,0.00,0.00,24.90,29.42,31.36,-0.15,-4.01,1022.47,2016.86,3591.00,3064.96,3526.84,0.00,0.00,0.00,0000 0000 0000 A000 020008
2018-10-12 08:07:07,0.00,0.00,0.00,24.90,29.42,31.35,-0.15,-4.00,1022.48,2016.92,3591.04,3064.97,3526.91,0.00,0.00,0.00,0000 0000 0000 A000 020008
2018-10-12 08:12:08,0.00,0.00,0.00,24.90,29.42,31.35,-0.15,-4.00,1022.48,2016.83,3591.01,3064.90,3526.74,0.00,0.00,0.00,0000 0000 0000 A000 020008
2018-10-12 08:17:10,0.00,0.00,0.00,24.90,29.42,31.36,-0.15,-4.00,1022.48,2016.82,3591.01,3064.92,3526.83,0.00,0.00,0.00,0000 0000 0000 A000 020008
2018-10-12 08:22:11,0.00,0.00,0.00,24.91,29.42,31.38,-0.15,-4.00,1022.49,2016.94,3591.02,3064.94,3526.90,0.00,0.00,0.00,0000 0000 0000 A000 020008
2018-10-12 08:27:12,0.00,0.00,0.00,24.92,29.42,31.37,-0.15,-4.00,1022.49,2016.93,3591.03,3064.97,3526.93,0.00,0.00,0.00,0000 0000 0000 A000 020008
2018-10-12 08:32:13,0.00,0.00,0.00,24.92,29.42,31.32,-0.15,-4.00,1022.50,2016.95,3591.02,3064.97,3526.93,0.00,0.00,0.00,0000 0000 0000 A000 020008
2018-10-12 08:37:14,0.00,0.00,0.00,24.91,29.42,31.33,-0.15,-4.00,1022.58,2016.94,3591.05,3064.97,3526.95,0.00,0.00,0.00,0000 0000 0000 A000 020008
2018-10-12 08:42:15,0.00,0.00,0.00,24.91,29.42,31.33,-0.15,-4.00,1022.82,2016.97,3591.06,3064.98,3526.98,0.00,0.00,0.00,0000 0000 0000 A000 020008
2018-10-12 08:47:16,0.00,0.00,0.00,24.92,29.42,31.30,-0.15,-4.00,1022.82,2016.98,3591.03,3064.97,3526.98,0.00,0.00,0.00,0000 0000 0000 A000 020008
2018-10-12 08:52:17,0.00,0.00,0.00,24.92,29.42,31.37,-0.15,-4.00,1022.90,2016.98,3591.10,3064.98,3526.98,0.00,0.00,0.00,0000 0000 0000 A000 020008
2018-10-12 08:57:18,0.00,0.00,0.00,24.92,29.42,31.32,-0.15,-4.00,1022.96,2016.98,3591.08,3064.98,3526.97,0.00,0.00,0.00,0000 0000 0000 A000 020008
2018-10-12 09:02:20,0.00,0.00,0.00,24.92,29.42,31.35,-0.04,-1.04,1022.96,2016.97,3647.27,3058.02,3521.59,0.00,0.00,0.00,0000 0000 0000 A000 02000A
2018-10-12 09:07:21,0.00,0.00,0.00,24.92,29.42,31.42,0.01,0.25,1022.96,2016.95,3678.20,3054.00,3517.19,0.00,0.00,0.00,0000 0000 0000 A000 020008
2018-10-12 09:12:22,0.00,0.00,0.00,24.92,29.42,31.40,0.00,0.25,1022.98,2016.96,3677.87,3054.00,3516.57,0.00,0.00,0.00,0000 0000 0000 A000 020008
2018-10-12 09:17:23,0.00,0.00,0.00,24.92,29.42,31.40,0.00,0.25,1023.01,2016.87,3677.21,3054.01,3516.03,0.00,0.00,0.00,0000 0000 0000 A000 020008
2018-10-12 09:22:25,0.00,0.00,0.00,24.92,29.42,31.37,0.00,0.25,1023.13,2016.90,3677.03,3054.00,3516.00,0.00,0.00,0.00,0000 0000 0000 A000 020008
2018-10-12 09:27:26,0.00,0.00,0.00,24.93,29.42,31.37,0.00,0.25,1023.35,2016.83,3677.00,3054.00,3516.00,0.00,0.00,0.00,0000 0000 0000 A000 020008
2018-10-12 09:32:27,0.00,0.00,0.00,24.95,29.42,31.42,0.00,0.25,1023.44,2016.92,3677.00,3054.00,3515.98,0.00,0.00,0.00,0000 0000 0000 A000 020008
2018-10-12 09:37:28,0.00,0.00,0.00,24.95,29.42,31.39,0.00,0.25,1023.45,2016.88,3677.00,3054.00,3515.92,0.00,0.00,0.00,0000 0000 0000 A000 020008
2018-10-12 09:42:30,0.00,0.00,0.00,24.95,29.42,31.38,0.00,0.25,1023.45,2016.91,3676.99,3054.00,3515.87,0.00,0.00,0.00,0000 0000 0000 A000 020008
2018-10-12 09:47:31,0.00,0.00,0.00,24.95,29.42,31.39,0.01,0.24,1023.45,2016.88,3676.99,3054.00,3515.78,0.00,0.00,0.00,0000 0000 0000 A000 020008
2018-10-12 09:52:32,0.00,0.00,0.00,24.97,29.43,31.44,0.00,0.25,1023.45,2016.86,3676.96,3054.00,3515.46,0.00,0.00,0.00,0000 0000 0000 A000 020008
2018-10-12 09:57:33,0.00,0.00,0.00,24.97,29.43,31.38,0.00,0.25,1023.45,2016.74,3676.90,3054.00,3515.13,0.00,0.00,0.00,0000 0000 0000 A000 020008
2018-10-12 10:02:35,0.00,0.00,0.00,24.97,29.44,31.40,0.00,0.25,1023.45,2016.80,3676.89,3054.01,3515.13,0.00,0.00,0.00,0000 0000 0000 A000 020008
2018-10-12 10:07:36,0.00,0.00,0.00,24.97,29.45,31.41,0.00,0.25,1023.45,2016.82,3676.85,3054.00,3515.10,0.00,0.00,0.00,0000 0000 0000 A000 020008
2018-10-12 10:12:36,0.00,0.00,0.00,24.99,29.45,31.46,0.00,0.25,1023.46,2016.72,3676.43,3054.00,3515.02,0.00,0.00,0.00,0000 0000 0000 A000 020008
2018-10-12 10:17:37,0.00,0.00,0.00,25.00,29.45,31.45,0.00,0.25,1023.47,2016.65,3676.27,3054.00,3515.01,0.00,0.00,0.00,0000 0000 0000 A000 020008
2018-10-12 10:22:39,0.00,0.00,0.00,25.00,29.45,31.37,0.00,0.25,1023.47,2016.78,3676.30,3054.00,3515.01,0.00,0.00,0.00,0000 0000 0000 A000 020008
2018-10-12 10:27:40,0.00,0.00,0.00,25.00,29.45,31.40,0.00,0.25,1023.48,2016.85,3676.32,3054.00,3515.01,0.00,0.00,0.00,0000 0000 0000 A000 020008
2018-10-12 10:32:41,0.00,0.00,0.00,25.00,29.45,31.43,0.00,0.25,1023.47,2016.78,3676.16,3054.01,3515.01,0.00,0.00,0.00,0000 0000 0000 A000 020008
2018-10-12 10:37:42,0.00,0.00,0.00,25.00,29.45,31.44,0.00,0.25,1023.48,2016.73,3676.10,3054.00,3515.00,0.00,0.00,0.00,0000 0000 0000 A000 020008
2018-10-12 10:42:44,0.00,0.00,0.00,25.00,29.45,31.43,0.00,0.25,1023.48,2016.59,3676.05,3054.00,3515.00,0.00,0.00,0.00,0000 0000 0000 A000 020008
2018-10-12 10:47:45,0.00,0.00,0.00,25.01,29.46,31.41,0.00,0.25,1023.51,2016.60,3676.07,3054.00,3515.00,0.00,0.00,0.00,0000 0000 0000 A000 020008
2018-10-12 10:52:46,0.00,0.00,0.00,25.02,29.47,31.44,0.00,0.25,1023.53,2016.69,3676.03,3054.00,3515.00,0.00,0.00,0.00,0000 0000 0000 A000 020008
2018-10-12 10:57:47,0.00,0.00,0.00,25.02,29.47,31.46,0.00,0.25,1023.50,2016.49,3676.01,3054.00,3515.00,0.00,0.00,0.00,0000 0000 0000 A000 020008
2018-10-12 11:02:49,0.00,0.00,0.00,25.02,29.47,31.40,0.00,0.25,1023.49,2016.58,3676.02,3054.00,3515.00,0.00,0.00,0.00,0000 0000 0000 A000 020008
2018-10-12 11:07:50,0.00,0.00,0.00,25.02,29.47,31.41,0.00,0.26,1023.49,2016.61,3676.01,3054.00,3515.00,0.00,0.00,0.00,0000 0000 0000 A000 020008
2018-10-12 11:12:51,0.00,0.00,0.00,25.02,29.47,31.46,0.00,0.25,1023.48,2016.72,3676.03,3054.00,3515.00,0.00,0.00,0.00,0000 0000 0000 A000 020008
2018-10-12 11:17:52,0.00,0.00,0.00,25.02,29.47,31.46,0.00,0.25,1023.54,2016.47,3676.00,3054.00,3514.99,0.00,0.00,0.00,0000 0000 0000 A000 020008
2018-10-12 11:22:53,0.00,0.00,0.00,25.02,29.47,31.46,0.00,0.25,1023.53,2016.35,3676.00,3054.00,3514.98,0.00,0.00,0.00,0000 0000 0000 A000 020008
2018-10-12 11:27:54,0.00,0.00,0.00,25.02,29.48,31.44,0.00,0.25,1023.52,2016.23,3676.00,3053.99,3514.97,0.00,0.00,0.00,0000 0000 0000 A000 020008
2018-10-12 11:32:55,0.00,0.00,0.00,25.02,29.49,31.44,0.00,0.23,1023.51,2016.17,3676.00,3053.99,3514.95,0.00,0.00,0.00,0000 0000 0000 A000 020008
2018-10-12 11:37:56,0.00,0.00,0.00,25.02,29.50,31.47,0.00,0.25,1023.50,2016.16,3676.00,3053.99,3514.93,0.00,0.00,0.00,0000 0000 0000 A000 020008
2018-10-12 11:42:57,0.00,0.00,0.00,25.03,29.50,31.43,0.00,0.25,1023.50,2016.09,3675.99,3053.98,3514.66,0.00,0.00,0.00,0000 0000 0000 A000 020008
2018-10-12 11:47:58,0.00,0.00,0.00,25.02,29.50,31.46,0.00,0.25,1023.65,2016.05,3675.98,3053.98,3514.48,0.00,0.00,0.00,0000 0000 0000 A000 020008
2018-10-12 11:53:00,0.00,0.00,0.00,25.03,29.50,31.47,0.00,0.25,1023.71,2016.03,3675.99,3053.98,3514.46,0.00,0.00,0.00,0000 0000 0000 A000 020008
2018-10-12 11:58:01,0.00,0.00,0.00,25.04,29.50,31.50,0.00,0.26,1023.85,2016.03,3675.97,3053.97,3514.28,0.00,0.00,0.00,0000 0000 0000 A000 020008
2018-10-12 12:03:02,0.00,0.00,0.00,25.03,29.50,31.47,0.00,0.24,1023.87,2016.03,3675.98,3053.96,3514.22,0.00,0.00,0.00,0000 0000 0000 A000 020008
2018-10-12 12:08:03,0.00,0.00,0.00,25.03,29.50,31.53,0.00,0.25,1023.89,2016.04,3675.94,3053.96,3514.13,0.00,0.00,0.00,0000 0000 0000 A000 020008
2018-10-12 12:13:05,0.00,0.00,0.00,25.04,29.50,31.51,0.00,0.25,1023.89,2016.04,3675.94,3053.95,3514.09,0.00,0.00,0.00,0000 0000 0000 A000 020008
2018-10-12 12:18:06,0.00,0.00,0.00,25.04,29.51,31.45,0.00,0.25,1023.87,2016.02,3675.90,3053.94,3514.06,0.00,0.00,0.00,0000 0000 0000 A000 020008
2018-10-12 12:23:08,0.00,0.00,0.00,25.02,29.52,31.49,0.00,0.25,1023.84,2016.01,3675.73,3053.82,3514.03,0.00,0.00,0.00,0000 0000 0000 A000 020008
2018-10-12 12:28:09,0.00,0.00,0.00,25.02,29.52,31.51,0.00,0.25,1023.86,2016.01,3675.77,3053.86,3514.02,0.00,0.00,0.00,0000 0000 0000 A000 020008
2018-10-12 12:33:10,0.00,0.00,0.00,25.02,29.52,31.48,0.00,0.29,1023.88,2016.00,3675.56,3053.81,3514.01,0.00,0.00,0.00,0000 0000 0000 A000 020008
2018-10-12 12:38:12,0.00,0.00,0.00,25.02,29.52,31.45,0.00,0.24,1023.88,2016.03,3675.75,3053.88,3514.02,0.00,0.00,0.00,0000 0000 0000 A000 020008
2018-10-12 12:43:13,0.00,0.00,0.00,25.02,29.52,31.47,0.00,0.26,1023.86,2016.01,3675.76,3053.88,3514.02,0.00,0.00,0.00,0000 0000 0000 A000 020008
2018-10-12 12:48:14,0.00,0.00,0.00,25.02,29.52,31.51,0.00,0.26,1023.86,2016.01,3675.46,3053.75,3514.00,0.00,0.00,0.00,0000 0000 0000 A000 020008
2018-10-12 12:53:15,0.00,0.00,0.00,25.02,29.52,31.45,0.00,0.25,1023.88,2016.01,3675.35,3053.70,3514.01,0.00,0.00,0.00,0000 0000 0000 A000 020008
2018-10-12 12:58:16,0.00,0.00,0.00,25.02,29.52,31.46,0.00,0.24,1023.92,2016.00,3675.21,3053.68,3514.00,0.00,0.00,0.00,0000 0000 0000 A000 020008
2018-10-12 13:03:17,0.00,0.00,0.00,25.02,29.52,31.48,0.00,0.24,1023.94,2016.01,3675.19,3053.62,3514.00,0.00,0.00,0.00,0000 0000 0000 A000 020008
2018-10-12 13:08:19,0.00,0.00,0.00,25.02,29.52,31.45,0.00,0.25,1023.94,2016.01,3675.30,3053.73,3514.00,0.00,0.00,0.00,0000 0000 0000 A000 020008
2018-10-12 13:13:20,0.00,0.00,0.00,25.01,29.52,31.46,0.00,0.25,1023.94,2016.00,3675.21,3053.66,3514.00,0.00,0.00,0.00,0000 0000 0000 A000 020008
2018-10-12 13:18:21,0.00,0.00,0.00,25.00,29.52,31.46,0.00,0.25,1023.94,2016.01,3675.07,3053.42,3514.00,0.00,0.00,0.00,0000 0000 0000 A000 020008
2018-10-12 13:23:22,0.00,0.00,0.00,25.00,29.52,31.44,0.00,0.25,1023.94,2016.00,3675.03,3053.29,3514.00,0.00,0.00,0.00,0000 0000 0000 A000 020008